This is the latest recevied weather packets stored in our database for station/object OE5ERN-10. If no packets are shown the sender has not sent any weather packets the latest 10 day(s).
| Time | Temp. | Humidity | Pressure | Rain* | Wind** | Luminosity | Snow |
|---|---|---|---|---|---|---|---|
| 1777736438 | 25.56° C | 22% | 1022.8 hPa | 0 mm | - | - | - |
| 1777735538 | 26.11° C | 23% | 1023.1 hPa | 0 mm | - | - | - |
| 1777734638 | 26.11° C | 23% | 1023.3 hPa | 0 mm | - | - | - |
| 1777733738 | 25.56° C | 23% | 1023.5 hPa | 0 mm | - | - | - |
| 1777732838 | 26.11° C | 22% | 1023.7 hPa | 0 mm | - | - | - |
| 1777731938 | 26.67° C | 21% | 1023.8 hPa | 0 mm | - | - | - |
| 1777731038 | 26.67° C | 20% | 1024 hPa | 0 mm | - | - | - |
| 1777730139 | 26.67° C | 19% | 1024.1 hPa | 0 mm | - | - | - |
| 1777729238 | 26.67° C | 19% | 1024.3 hPa | 0 mm | - | - | - |
| 1777728339 | 26.11° C | 18% | 1024.5 hPa | 0 mm | - | - | - |
| 1777727439 | 26.11° C | 20% | 1024.8 hPa | 0 mm | - | - | - |
| 1777726539 | 26.11° C | 18% | 1025 hPa | 0 mm | - | - | - |
| 1777725639 | 25.56° C | 19% | 1025.2 hPa | 0 mm | - | - | - |
| 1777724739 | 25.56° C | 22% | 1025.4 hPa | 0 mm | - | - | - |
| 1777723839 | 25.56° C | 22% | 1025.7 hPa | 0 mm | - | - | - |
| 1777722939 | 25.56° C | 23% | 1025.8 hPa | 0 mm | - | - | - |
| 1777722039 | 25.56° C | 23% | 1026 hPa | 0 mm | - | - | - |
| 1777721139 | 26.11° C | 23% | 1026.2 hPa | 0 mm | - | - | - |
| 1777720239 | 25.56° C | 26% | 1026.3 hPa | 0 mm | - | - | - |
| 1777719339 | 25.56° C | 25% | 1026.4 hPa | 0 mm | - | - | - |
| 1777718439 | 25° C | 27% | 1026.6 hPa | 0 mm | - | - | - |
| 1777717539 | 25° C | 25% | 1026.9 hPa | 0 mm | - | - | - |
| 1777716639 | 27.22° C | 26% | 1027.1 hPa | 0 mm | - | - | - |
| 1777715739 | 27.78° C | 25% | 1027.4 hPa | 0 mm | - | - | - |
| 1777714839 | 30.56° C | 22% | 1027.4 hPa | 0 mm | - | - | - |
* Rain latest hour (hover to see other rain measurements)
** Current wind speed in m/s (hover to see current wind gust speed)